Location: Ladd Observatory
(41.8387°N, 71.3996°W)
Time: 17:47:45
(UTC-04:00)

ISS - Visible Passes

Search period start: 03 June 2015 00:00
Search period end: 13 June 2015 00:00
Orbit: 398 x 404 km, 51.6° (Epoch: 03 June)

Date Brightness Start Highest point End Pass type
(mag) Time Alt. Az. Time Alt. Az. Time Alt. Az.
03 Jun -0.2 01:04:30 10° NNW 01:06:42 17° N 01:08:55 10° NE visible
03 Jun -2.4 02:40:31 10° NW 02:43:42 48° NNE 02:46:52 10° ESE visible
03 Jun -2.0 04:17:24 10° W 04:19:55 20° SW 04:22:22 10° S visible
03 Jun -3.3 20:55:46 10° WSW 20:59:00 83° NW 21:02:16 10° NE visible
03 Jun -0.5 22:33:19 10° WNW 22:35:49 20° NNW 22:38:18 10° NE visible
04 Jun -0.1 00:11:09 10° NNW 00:13:07 15° N 00:15:05 10° NE visible
04 Jun -1.4 01:47:21 10° NW 01:50:17 30° NNE 01:53:14 10° E visible
04 Jun -2.6 03:23:41 10° WNW 03:28:40 19° SSE 03:29:48 10° SSE visible
04 Jun -1.0 21:39:28 10° W 21:42:18 26° NNW 21:45:07 10° NE visible
04 Jun -0.1 23:17:35 10° NW 23:19:31 15° N 23:21:27 10° NE visible
05 Jun -0.8 00:54:11 10° NW 00:56:48 22° NNE 00:58:05 17° NE visible
05 Jun -0.7 02:30:15 10° WNW 02:30:33 12° WNW 02:30:33 12° WNW visible
05 Jun -0.2 22:23:48 10° NW 22:25:54 16° N 22:28:00 10° NNE visible
06 Jun -0.4 00:00:58 10° NNW 00:03:14 17° NNE 00:05:26 10° NE visible
06 Jun -0.9 01:36:58 10° NW 01:37:56 18° NW 01:37:56 18° NW visible
06 Jun -0.4 21:29:55 10° WNW 21:32:19 19° NNW 21:34:43 10° NNE visible
06 Jun -0.3 23:07:38 10° NNW 23:09:38 15° N 23:11:38 10° NE visible
07 Jun -1.2 00:43:46 10° NW 00:45:48 27° N 00:45:48 27° N visible
07 Jun -0.3 22:14:05 10° NW 22:16:00 15° N 22:17:55 10° NE visible
07 Jun -1.1 23:50:34 10° NW 23:53:15 23° NNE 23:53:51 22° NE visible
08 Jun -0.4 21:20:19 10° NW 21:22:21 15° N 21:24:23 10° NNE visible
08 Jun -0.6 22:57:20 10° NNW 22:59:40 18° NNE 23:02:00 10° ENE visible
09 Jun -1.0 00:33:20 10° NW 00:34:34 21° NW 00:34:34 21° NW visible
09 Jun -0.4 22:04:00 10° NNW 22:06:03 15° N 22:08:06 10° NE visible
09 Jun -1.8 23:40:04 10° NW 23:42:47 35° N 23:42:47 35° N visible
10 Jun -0.4 21:10:29 10° NW 21:12:23 15° N 21:14:19 10° NE visible
10 Jun -1.3 22:46:51 10° NW 22:49:37 25° NNE 22:51:03 18° ENE visible
11 Jun -0.6 00:23:01 10° WNW 00:23:37 14° WNW 00:23:37 14° WNW visible
11 Jun -0.8 21:53:37 10° NNW 21:56:01 19° NNE 21:58:27 10° ENE visible
11 Jun -2.2 23:29:37 10° NW 23:31:55 42° NW 23:31:55 42° NW visible
12 Jun -0.6 21:00:16 10° NNW 21:02:22 16° N 21:04:29 10° NE visible
12 Jun -2.3 22:36:19 10° NW 22:39:25 41° NNE 22:40:16 33° ENE visible
